N395T KFOK-KISP

Flight info

Callsign N395T
Flight time 0h 11m
Altitude 3000
Route CCC
Aircraft PC12/L-SDFGRWY/S

Departure

Time 2026-04-22 22:43
Airport Francis S Gabreski Airport (KFOK)

Arrival

Time 2026-04-22 22:54
Airport Long Island MacArthur Airport (KISP)
Time Latitude Longitude Altitude Speed Heading
2026-04-22 22:34 40.84374 -72.64063 59 ft 0 kts 358°
2026-04-22 22:40 40.84380 -72.64063 62 ft 5 kts 357°
2026-04-22 22:40 40.84398 -72.64020 61 ft 8 kts 90°
2026-04-22 22:40 40.84406 -72.63950 58 ft 9 kts 46°
2026-04-22 22:40 40.84471 -72.63944 58 ft 10 kts 358°
2026-04-22 22:41 40.84540 -72.63948 61 ft 10 kts 357°
2026-04-22 22:41 40.84605 -72.63952 67 ft 9 kts 357°
2026-04-22 22:41 40.84610 -72.63952 67 ft 0 kts 357°
2026-04-22 22:42 40.84659 -72.63956 64 ft 10 kts 356°
2026-04-22 22:42 40.84672 -72.63892 61 ft 13 kts 130°
2026-04-22 22:42 40.84509 -72.63658 62 ft 62 kts 132°
2026-04-22 22:42 40.84124 -72.63102 106 ft 96 kts 131°
2026-04-22 22:43 40.83650 -72.62385 391 ft 105 kts 126°
2026-04-22 22:43 40.83416 -72.61362 614 ft 134 kts 90°
2026-04-22 22:43 40.83811 -72.60274 1177 ft 137 kts 47°
2026-04-22 22:43 40.84690 -72.59693 1623 ft 153 kts 10°
2026-04-22 22:44 40.85797 -72.59864 1960 ft 169 kts 336°
2026-04-22 22:44 40.86775 -72.60724 2416 ft 171 kts 311°
2026-04-22 22:44 40.87315 -72.62082 2878 ft 168 kts 287°
2026-04-22 22:44 40.87768 -72.63590 3000 ft 188 kts 289°
2026-04-22 22:45 40.88292 -72.65227 3009 ft 204 kts 291°
2026-04-22 22:45 40.88868 -72.67003 3006 ft 215 kts 291°
2026-04-22 22:45 40.89458 -72.68845 3008 ft 220 kts 291°
2026-04-22 22:45 40.90051 -72.70708 3007 ft 220 kts 290°
2026-04-22 22:46 40.90640 -72.72563 3003 ft 218 kts 290°
2026-04-22 22:46 40.91228 -72.74413 3000 ft 217 kts 290°
2026-04-22 22:46 40.91813 -72.76257 3000 ft 216 kts 290°
2026-04-22 22:46 40.92389 -72.78072 2995 ft 212 kts 290°
2026-04-22 22:47 40.92877 -72.79890 2989 ft 208 kts 277°
2026-04-22 22:47 40.92839 -72.81770 2988 ft 204 kts 262°
2026-04-22 22:47 40.92696 -72.83636 2985 ft 204 kts 263°
2026-04-22 22:47 40.92565 -72.85510 2994 ft 205 kts 263°
2026-04-22 22:48 40.92438 -72.87388 2983 ft 205 kts 263°
2026-04-22 22:48 40.92309 -72.89307 2772 ft 213 kts 264°
2026-04-22 22:48 40.92189 -72.91291 2560 ft 219 kts 264°
2026-04-22 22:48 40.92081 -72.93307 2350 ft 222 kts 263°
2026-04-22 22:49 40.91744 -72.95255 2092 ft 218 kts 242°
2026-04-22 22:49 40.91070 -72.97008 2084 ft 205 kts 239°
2026-04-22 22:49 40.90410 -72.98624 1943 ft 197 kts 238°
2026-04-22 22:49 40.89779 -73.00212 1670 ft 190 kts 240°
2026-04-22 22:50 40.89217 -73.01702 1524 ft 178 kts 240°
2026-04-22 22:50 40.88669 -73.03206 1480 ft 187 kts 240°
2026-04-22 22:50 40.88075 -73.04744 1516 ft 188 kts 239°
2026-04-22 22:50 40.87477 -73.06244 1513 ft 175 kts 238°
2026-04-22 22:51 40.86910 -73.07552 1418 ft 156 kts 235°
2026-04-22 22:51 40.86388 -73.08697 1393 ft 136 kts 233°
2026-04-22 22:51 40.85874 -73.09692 1348 ft 128 kts 230°
2026-04-22 22:51 40.85355 -73.10609 1284 ft 121 kts 225°
2026-04-22 22:52 40.84791 -73.11374 1131 ft 107 kts 214°
2026-04-22 22:52 40.84211 -73.11841 940 ft 96 kts 203°
2026-04-22 22:52 40.83604 -73.12197 871 ft 98 kts 199°
2026-04-22 22:52 40.82956 -73.12486 754 ft 97 kts 189°
2026-04-22 22:53 40.82306 -73.12554 598 ft 91 kts 175°
2026-04-22 22:53 40.81702 -73.12422 518 ft 86 kts 160°
2026-04-22 22:53 40.81189 -73.11997 371 ft 86 kts 140°
2026-04-22 22:53 40.80772 -73.11452 257 ft 83 kts 134°
2026-04-22 22:54 40.80375 -73.10931 146 ft 81 kts 135°
2026-04-22 22:54 40.80010 -73.10453 90 ft 64 kts 135°
2026-04-22 22:54 40.79829 -73.10218 92 ft 15 kts 153°
2026-04-22 22:54 40.79754 -73.10280 91 ft 12 kts 234°
2026-04-22 22:55 40.79800 -73.10386 91 ft 17 kts 315°
2026-04-22 22:55 40.79887 -73.10502 93 ft 19 kts 315°
2026-04-22 22:55 40.80004 -73.10710 93 ft 9 kts 204°
2026-04-22 22:56 40.79944 -73.10719 91 ft 9 kts 181°
2026-04-22 22:56 40.79883 -73.10720 89 ft 9 kts 181°
2026-04-22 22:56 40.79823 -73.10721 89 ft 7 kts 183°
2026-04-22 22:56 40.79803 -73.10775 89 ft 9 kts 271°
2026-04-22 22:57 40.79805 -73.10867 89 ft 9 kts 269°
2026-04-22 22:57 40.79821 -73.10899 89 ft 5 kts 50°
2026-04-22 22:57 40.79823 -73.10890 89 ft 0 kts 94°